Location: Caltech
(34.1382°N, 118.1253°W)
Time: 13:40:38
(UTC-07:00)

TMSAT-1 - Visible Passes

Search period start: 26 June 2017 00:00
Search period end: 06 July 2017 00:00
Orbit: 809 x 811 km, 98.6° (Epoch: 25 June)

Date Brightness Start Highest point End Pass type
(mag) Time Alt. Az. Time Alt. Az. Time Alt. Az.
26 Jun 10.1 02:17:20 10° NNE 02:22:13 36° E 02:22:26 36° ESE visible
26 Jun 10.5 03:57:42 10° NNW 04:01:51 24° WNW 04:03:35 20° W visible
27 Jun 10.9 01:54:29 10° NE 01:58:28 21° E 01:58:31 21° E visible
27 Jun 9.8 03:33:31 10° N 03:38:25 39° WNW 03:39:40 34° WSW visible
28 Jun 11.5 01:32:44 10° ENE 01:34:35 12° E 01:34:35 12° E visible
28 Jun 9.1 03:09:38 10° N 03:14:55 67° WNW 03:15:44 58° WSW visible
29 Jun 9.1 02:46:02 10° NNE 02:51:21 72° ESE 02:51:49 67° SE visible
29 Jun 11.1 04:28:25 10° NW 04:30:33 12° WNW 04:32:41 10° W visible
30 Jun 9.9 02:22:40 10° NNE 02:27:41 41° E 02:27:53 41° ESE visible
30 Jun 10.6 04:03:21 10° NNW 04:07:15 21° WNW 04:09:02 18° W visible
01 Jul 10.7 01:59:42 10° NE 02:03:57 24° E 02:03:57 24° E visible
01 Jul 9.9 03:39:04 10° N 03:43:50 35° WNW 03:45:06 31° W visible
02 Jul 11.4 01:37:31 10° ENE 01:40:01 14° E 01:40:01 14° E visible
02 Jul 9.2 03:15:08 10° N 03:20:21 59° WNW 03:21:10 53° WSW visible
03 Jul 9.0 02:51:27 10° NNE 02:56:48 81° ESE 02:57:14 74° SSE visible
03 Jul 11.2 04:34:38 10° NW 04:35:55 11° WNW 04:37:13 10° WNW visible
04 Jul 9.7 02:28:02 10° NNE 02:33:09 47° E 02:33:17 47° ESE visible
04 Jul 10.7 04:09:02 10° NNW 04:12:38 19° WNW 04:14:26 16° W visible
05 Jul 10.6 02:04:57 10° NE 02:09:21 27° E 02:09:21 27° E visible
05 Jul 10.1 03:44:38 10° N 03:49:15 31° WNW 03:50:30 28° W visible
